THOR ABLESTAR DEB, 2432

Orbit data source: Space-Track

THOR ABLESTAR DEB, 2432 is space debris in LEO originally from a launch on Thu, 05 Dec 1963 UTC launched from the Air Force Western Test Range (AFWTR). Debris objects in space refer to the collection of defunct objects orbiting the Earth. Examples of debris include non-operational satellites, rocket bodies, and fragments generated from explosions, collisions, or faulty payload assembly.

Loading next visibility...
Identifier
2432, 1963-049G
Orbit
LEO
Last TLE update
12 hours ago
Origin
Manufacturer
Unknown
Mission
Spacecraft
Bus & Motor
Unknown
Mass
Unknown
Launch date (UTC)
1963-12-05 (62 years ago)
Launch vehicle
Unknown
Launch site
Air Force Western Test Range (AFWTR)
Object type
Payload
Rocket body
Debris
Shape & HBR
Unknown
Radar Cross Section
Medium (>0.1 m² and <1 m²)

Expand to show TLE details & history

TLE from 12 hours ago
0 THOR ABLESTAR DEB
1  2432U 63049G   25182.24257742  .00000078  00000-0  11004-3 0  9998
2  2432  89.9187  73.5399 0034503 162.2156 315.8157 13.48190771 25872
Epoch: 2025-07-01T05:49Z
TLE epoch observation values (Epoch: 2025-07-01T05:49:18.689Z)
Latitude
62.33175°
Longitude
-113.48307°
Altitude
1,071.285 km
Speed
7.331 km/s
True Right ascension
16h 53m 32s
True Declination
62° 11' 46"
Sunlit
Object was in daylight at epoch
Visualization orbit readout
Latitude
18.81273°
Longitude
66.69467°
Altitude
1,101.613 km
Speed
7.293 km/s
Apparent Right ascension
03h 43m 33s
Apparent Declination
-35° 28' 14"
Sunlit
Object is in daylight
Visualization observer readout
Local Sidereal Time
05:27:42
Azimuth
201.349° SSW
Elevation
10.889°
Doppler factor
1
Orbital elements
Apogee altitude
1,101.694 km
Perigee altitude
1,050.256 km
Semi-major axis
7,454.112 km
Eccentricity
0.00345
Inclination
89.9187°
RAAN
73.5399°
Arg. of periapsis
162.2156°
True anomaly
Unknown
Mean anomaly
315.8157°
Eccentric anomaly
Unknown
Mean motion
3.37248 °/min
Orbital period
106.75 mins
BSTAR
0.00011004
Loading maneuver chart data...
Loading SW <> Apogee altitude chart data...
Loading historical data...
Loading historical data...
Loading historical data...
Loading historical data...
Loading historical data...
Loading historical data...
Loading historical data...

THOR ABLESTAR DEB Visibility forecast

Observer location: undefined°, undefined°

Span
Click to sort rows by Start time (UTC) header in descending order
Start Az.
Max El. time (UTC)
Max El. Az.
Max El.
End time (UTC)
End Az.
12 mins2025-07-01 17:48:02.600Z201.271° SSW2025-07-01 17:54:02.600Z265.778° W35.683°2025-07-01 18:00:02.600Z343.326° N
11 mins2025-07-02 05:00:02.600Z5.317° NNE2025-07-02 05:05:02.600Z62.809° ENE44.483°2025-07-02 05:11:02.600Z178.999° S
5 mins2025-07-02 06:49:02.600Z309.641° NW2025-07-02 06:51:02.600Z289.342° WNW14.925°2025-07-02 06:54:02.600Z260.305° W
12 mins2025-07-02 16:58:02.600Z170.905° S2025-07-02 17:04:02.600Z47.243° ENE44.375°2025-07-02 17:10:02.600Z0.384° NNE
|